Reno, NV

6:31 AM PDT on May 29, 2017 (GMT -0700)
Reno-Tahoe International

Weather History for KRNO - October, 2012

Change the Weather History Date:

Tuesday, October 9, 2012

  Actual Average Record
Temperature  
Mean Temperature 59 °F 57 °F  
Max Temperature 72 °F 72 °F 92 °F (2015)
Min Temperature 46 °F 41 °F 19 °F (1961)
Degree Days  
Heating Degree Days 6 9  
Month to date heating degree days 25 66  
Since 1 July heating degree days 26 156  
Cooling Degree Days 0 0  
Month to date cooling degree days 16 4  
Year to date cooling degree days 1271 838  
Growing Degree Days 9 (Base 50)    
Moisture  
Dew Point 31 °F    
Average Humidity 41    
Maximum Humidity 65    
Minimum Humidity 17    
Precipitation  
Precipitation 0.00 in 0.01 in 0.07 in (1925)
Month to date precipitation T 0.14  
Year to date precipitation 2.73 5.18  
Snow  
Snow 0.00 in 0.00 in 0.40 in (1960)
Month to date snowfall 0.0 0.1  
Since 1 July snowfall 0.0 0.2  
Since 1 September snowfall 0.0 0.2  
Snow Depth 0.00 in    
Sea Level Pressure  
Sea Level Pressure 29.90 in    
Wind  
Wind Speed 4 mph (NW)    
Max Wind Speed 13 mph    
Max Gust Speed 20 mph    
Visibility 10 miles    
Events      
T = Trace of Precipitation, MM = Missing Value Source: NWS Daily Summary

Daily Weather History Graph

Daily Weather History Graph

Search for Another Location

Airport or City:

Trip Planner

Search our weather history database for the weather conditions in past years. The results will help you decide how hot, cold, wet, or windy it might be!

Date:

Astronomy

Oct. 09, 2012 Rise Set
Actual Time 7:03 AM PDT 6:28 PM PDT
Civil Twilight 6:36 AM PDT 6:55 PM PDT
Nautical Twilight 6:05 AM PDT 7:26 PM PDT
Astronomical Twilight 5:34 AM PDT 7:57 PM PDT
Moon 12:46 AM PDT (10/9) 2:57 PM PDT (10/9)
Length of Visible Light 12h 18m
Length of Day
11h 24m
Waning Crescent, 35% of the Moon is Illuminated
Oct 9
Waning Crescent
Oct 15
New
Oct 21
First Quarter
Oct 29
Full
Nov 6
Last Quarter

Hourly Weather History & Observations

Time (PDT) Temp. Dew Point Humidity Pressure Visibility Wind Dir Wind Speed Gust Speed Precip Events Conditions
12:55 AM 57.0 °F 37.0 °F 47% 29.92 in 10.0 mi WNW 11.5 mph - N/A   Mostly Cloudy
1:55 AM 57.9 °F 35.1 °F 42% 29.92 in 10.0 mi NW 10.4 mph - N/A   Mostly Cloudy
2:55 AM 55.9 °F 37.0 °F 49% 29.92 in 10.0 mi NW 5.8 mph - N/A   Scattered Clouds
3:55 AM 55.0 °F 36.0 °F 49% 29.92 in 10.0 mi NW 5.8 mph - N/A   Partly Cloudy
4:55 AM 53.1 °F 36.0 °F 52% 29.93 in 10.0 mi WNW 3.5 mph - N/A   Clear
5:55 AM 51.1 °F 33.1 °F 50% 29.94 in 10.0 mi Calm Calm - N/A   Clear
6:55 AM 46.9 °F 35.1 °F 63% 29.97 in 10.0 mi Variable 3.5 mph - N/A   Clear
7:55 AM 48.9 °F 34.0 °F 56% 29.99 in 10.0 mi Calm Calm - N/A   Clear
8:55 AM 51.1 °F 34.0 °F 52% 29.98 in 10.0 mi Calm Calm - N/A   Partly Cloudy
9:55 AM 55.9 °F 35.1 °F 45% 29.99 in 10.0 mi Calm Calm - N/A   Partly Cloudy
10:55 AM 59.0 °F 35.1 °F 41% 29.96 in 10.0 mi Calm Calm - N/A   Scattered Clouds
11:55 AM 63.0 °F 34.0 °F 34% 29.94 in 10.0 mi Variable 4.6 mph - N/A   Scattered Clouds
12:55 PM 66.9 °F 30.9 °F 26% 29.91 in 10.0 mi NW 3.5 mph - N/A   Mostly Cloudy
1:55 PM 68.0 °F 30.0 °F 24% 29.88 in 10.0 mi Calm Calm - N/A   Mostly Cloudy
2:55 PM 69.1 °F 30.0 °F 23% 29.86 in 10.0 mi Calm Calm - N/A   Mostly Cloudy
3:55 PM 71.1 °F 28.0 °F 20% 29.85 in 10.0 mi Variable 4.6 mph - N/A   Mostly Cloudy
4:55 PM 71.1 °F 25.0 °F 18% 29.84 in 10.0 mi Variable 5.8 mph - N/A   Mostly Cloudy
5:55 PM 70.0 °F 24.1 °F 18% 29.84 in 10.0 mi NE 6.9 mph - N/A   Mostly Cloudy
6:55 PM 68.0 °F 28.0 °F 22% 29.86 in 10.0 mi North 8.1 mph - N/A   Mostly Cloudy
7:55 PM 64.9 °F 28.0 °F 25% 29.86 in 10.0 mi North 6.9 mph - N/A   Scattered Clouds
8:55 PM 64.0 °F 26.1 °F 24% 29.86 in 10.0 mi North 6.9 mph - N/A   Mostly Cloudy
9:55 PM 61.0 °F 27.0 °F 27% 29.87 in 10.0 mi Calm Calm - N/A   Mostly Cloudy
10:55 PM 60.1 °F 28.0 °F 30% 29.86 in 10.0 mi WNW 6.9 mph - N/A   Mostly Cloudy
11:55 PM 60.1 °F 28.9 °F 31% 29.86 in 10.0 mi West 3.5 mph - N/A   Mostly Cloudy